FW1409 Weather Reports


time (UTC)temp
F
wind
direction
speed
knots
gust
knots
rain 1hr
in
rain 24hr
in
rain mn
in
humidity
%
barometer
mb
20260506143022 62 307 0.9 6.1 0.00 0.00 0.00 86 1010.1
20260506141511 63 148 2.6 7.0 0.00 0.00 0.00 84 1010.6
20260506140010 63 308 2.6 7.8 0.00 0.00 0.00 84 1010.3
20260506134511 62 165 1.7 5.2 0.00 0.00 0.00 87 1010.7
20260506133006 61 97 1.7 8.7 0.00 0.00 0.00 87 1010.4
20260506131505 61 145 0.9 5.2 0.00 0.00 0.00 88 1010.3
20260506130007 61 143 0.9 7.8 0.00 0.00 0.00 88 1010.4
20260506124501 61 158 2.6 6.1 0.00 0.00 0.00 87 1010.4
20260506123100 62 232 0.9 3.5 0.00 0.00 0.00 86 1010.6
20260506121559 61 101 0.9 5.2 0.00 0.00 0.00 89 1011.0
20260506120057 60 27 0.9 6.1 0.00 0.00 0.00 90 1011.0
20260506114556 60 300 1.7 7.0 0.00 0.00 0.00 90 1010.9
20260506113055 58 214 0.9 5.2 0.00 0.00 0.00 93 1010.8
20260506111553 58 103 0.0 2.6 0.00 0.00 0.00 94 1011.0
20260506110053 56 97 0.0 4.3 0.00 0.00 0.00 95 1010.8
20260506104552 55 359 0.0 3.5 0.00 0.00 0.00 96 1010.9
20260506103054 55 127 0.0 1.7 0.00 0.00 0.00 97 1010.7
20260506101550 54 103 0.0 2.6 0.00 0.00 0.00 96 1010.8
20260506100050 54 94 0.0 2.6 0.00 0.00 0.00 96 1010.7
20260506094547 54 84 0.0 1.7 0.00 0.00 0.00 96 1010.6
20260506093047 54 198 0.0 0.9 0.00 0.00 0.00 96 1010.6
20260506091546 54 143 0.0 1.7 0.00 0.00 0.00 96 1010.7
20260506090049 54 137 0.0 1.7 0.00 0.00 0.00 96 1010.9
20260506084559 54 79 0.0 2.6 0.00 0.00 0.00 96 1010.9
20260506083041 54 118 0.0 1.7 0.00 0.00 0.00 95 1011.0
20260506081541 55 85 0.0 1.7 0.00 0.00 0.00 95 1011.2
20260506073035 55 160 0.0 2.6 0.00 0.00 0.00 94 1011.4
20260506071534 55 114 0.9 2.6 0.00 0.00 0.00 94 1011.5
20260506061544 56 94 0.0 1.7 0.00 0.00 0.00 91 1011.3
20260506044517 60 148 0.0 2.6 0.00 0.00 0.00 86 1011.9
20260506043015 60 240 0.0 4.3 0.00 0.00 0.00 84 1011.8
20260506041507 61 165 0.9 3.5 0.00 0.00 0.00 83 1011.8
20260506040008 61 157 1.7 6.1 0.00 0.00 0.00 82 1011.8
20260506034503 61 245 0.9 5.2 0.00 0.00 0.00 82 1011.9
20260506033004 61 263 1.7 5.2 0.00 0.00 0.00 81 1011.7
20260506031503 61 205 0.9 8.7 0.00 0.00 0.00 81 1011.6
20260506030001 61 241 0.9 4.3 0.00 0.00 0.00 80 1011.5
20260506024602 61 231 1.7 5.2 0.00 0.00 0.00 79 1011.7
20260506023103 62 211 0.0 5.2 0.00 0.00 0.00 78 1011.6
20260506021606 62 226 1.7 7.8 0.00 0.00 0.00 77 1011.7
20260506020059 63 274 1.7 7.8 0.00 0.00 0.00 76 1011.4
20260506014558 62 204 1.7 5.2 0.00 0.00 0.00 77 1011.4
20260506013105 63 203 0.9 4.3 0.00 0.00 0.00 76 1011.1
20260506011606 63 323 0.9 3.5 0.00 0.00 0.00 75 1010.9
20260506010056 63 245 0.0 3.5 0.00 0.00 0.00 74 1010.6
20260506004555 64 262 0.9 6.1 0.00 0.00 0.00 73 1010.5
20260506003055 64 360 0.9 7.8 0.00 0.00 0.00 72 1010.3
20260506001555 65 281 0.9 12.2 0.00 0.00 0.00 71 1010.2
20260506000054 65 200 2.6 9.6 0.00 0.00 0.00 71 1010.1
20260505234603 65 218 4.3 9.6 0.00 0.00 0.00 70 1009.8
20260505233051 66 288 2.6 10.4 0.00 0.00 0.00 69 1009.7
20260505231605 66 240 2.6 11.3 0.00 0.00 0.00 68 1009.6
20260505230053 67 204 2.6 8.7 0.00 0.00 0.00 67 1009.4
20260505224549 67 295 2.6 9.6 0.00 0.00 0.00 67 1009.1
20260505223048 68 255 3.5 11.3 0.00 0.00 0.00 67 1009.3
20260505221553 68 281 5.2 10.4 0.00 0.00 0.00 67 1009.4
20260505220044 69 262 1.7 10.4 0.00 0.00 0.00 66 1009.3
20260505214603 70 303 3.5 9.6 0.00 0.00 0.00 65 1009.2
20260505213042 70 116 2.6 6.1 0.00 0.00 0.00 66 1009.2
20260505211541 70 77 1.7 8.7 0.00 0.00 0.00 67 1009.1
20260505210043 71 56 2.6 7.8 0.00 0.00 0.00 66 1008.9
20260505204540 70 92 2.6 11.3 0.00 0.00 0.00 66 1009.1
20260505203036 71 285 0.9 8.7 0.00 0.00 0.00 65 1009.0
20260505201535 71 258 2.6 9.6 0.00 0.00 0.00 64 1009.2
20260505200042 72 260 1.7 7.8 0.00 0.00 0.00 64 1009.3
20260505194533 72 236 2.6 12.2 0.00 0.00 0.00 64 1009.3
20260505193035 72 116 3.5 10.4 0.00 0.00 0.00 65 1009.4
20260505191529 73 120 1.7 11.3 0.00 0.00 0.00 64 1009.6
20260505190029 72 60 3.5 8.7 0.00 0.00 0.00 64 1009.9
20260505184529 73 84 2.6 8.7 0.00 0.00 0.00 63 1010.1
20260505183030 73 253 2.6 7.0 0.00 0.00 0.00 63 1010.1
20260505181525 74 264 2.6 9.6 0.00 0.00 0.00 62 1010.3
20260505180025 74 65 2.6 9.6 0.00 0.00 0.00 61 1010.1
20260505174523 75 117 3.5 9.6 0.00 0.00 0.00 60 1010.2
20260505173021 75 289 1.7 10.4 0.00 0.00 0.00 60 1010.5
20260505171520 74 68 4.3 10.4 0.00 0.00 0.00 60 1010.4
20260505170018 74 193 2.6 7.0 0.00 0.00 0.00 60 1010.4
20260505164516 74 134 2.6 11.3 0.00 0.00 0.00 62 1010.5
20260505163018 75 315 1.7 6.1 0.00 0.00 0.00 61 1010.6
20260505161513 73 174 3.5 10.4 0.00 0.00 0.00 60 1011.0
20260505153007 72 58 0.9 7.8 0.00 0.00 0.00 64 1011.3
20260505151504 71 257 4.3 10.4 0.00 0.00 0.00 64 1011.3